Regional Weather Roundup
Issued by NWS

Home | Current Version | Previous Version | Text Only | Print | Product List | Glossary On
Versions: 1 2 3 4 5 6 7 8 9 10 11 12 13 14 15 16 17 18 19 20 21 22 23 24 25 26 27 28 29 30 31 32 33 34 35 36 37 38 39 40 41 42 43 44 45 46 47 48 49 50
000
ASUS43 KMPX 110710
RWRMN
WEATHER ROUNDUP FOR MINNESOTA
NATIONAL WEATHER SERVICE TWIN CITIES/CHANHASSEN MN
100 AM CST SUN DEC 11 2016


NOTE: "FAIR" INDICATES FEW OR NO CLOUDS BELOW 12,000 FEET WITH NO
SIGNIFICANT WEATHER AND/OR OBSTRUCTIONS TO VISIBILITY. N/A MEANS
CURRENT SKY AND/OR WEATHER CONDITIONS ARE NOT AVAILABLE.

MNZ060>063-068>070-110800-
   Twin Cities Metro

CITY           SKY/WX    TMP DP  RH WIND       PRES   REMARKS
TWIN CITIES    LGT SNOW  15  11  83 E8        30.11F FOG     WCI   4
ST PAUL        LGT SNOW  15  12  88 E6        30.14F FOG     WCI   6
CRYSTAL        LGT SNOW  14   8  77 E7        30.09F WCI   4
BLAINE         LGT SNOW  16  12  86 E10       30.10F WCI   3
LAKEVILLE      LGT SNOW  12  12 100 E7        30.08F WCI   2
EDEN PRAIRIE   LGT SNOW  15  10  80 E10       30.08F VSB 1   WCI   2
SOUTH ST PAUL  LGT SNOW  16  12  86 E5        30.12F WCI   8
LAKE ELMO      LGT SNOW  16  12  86 NE7       30.13F WCI   6
$$
MNZ001>005-007-008-013>017-022>024-027-028-110800-
   Northwest Minnesota

CITY           SKY/WX    TMP DP  RH WIND       PRES   REMARKS
BEMIDJI        LGT SNOW  -3  -7  86 E5        30.12F WCI -14
HALLOCK        CLOUDY    -6  -9  84 E10       30.20S WCI -23
ROSEAU         CLOUDY   -13 -18  77 E3        30.20F
WARROAD        CLOUDY    -2  -6  84 SE6       30.20F WCI -14
THIEF RVR FALL CLOUDY    -7 -11  83 E12       30.16F WCI -26
CROOKSTON      CLOUDY    -2  -8  78 E9        30.16F WCI -18
FOSSTON        CLOUDY    -6  -9  84 E6        30.13R WCI -18
DETROIT LAKES  FLURRIES   9   3  78 E6        30.08F WCI  -1
MOORHEAD       MIX PCPN   7   1  78 E7        30.09F WCI  -5
PARK RAPIDS    CLOUDY     4  -3  73 E7        30.09F WCI  -8
$$
MNZ006-009>011-018-025>026-110800-
   North Central Minnesota

CITY           SKY/WX    TMP DP  RH WIND       PRES   REMARKS
BAUDETTE       PTCLDY    -7 -12  79 E6        30.19F WCI -20
INTL FALLS     CLOUDY   -11 -16  78 SE3       30.21F
WASKISH        CLOUDY    -8 -11  84 E3        30.18S
BIG FORK       CLOUDY   -15 -20  76 CALM      30.16F
LONGVILLE      CLOUDY     0  -4  85 CALM      30.12F
GRAND RAPIDS   CLOUDY    -4  -7  87 E3        30.15F
ORR            CLOUDY   -17 -24  70 CALM      30.15F
COOK           CLOUDY   -17 -20  83 CALM      30.18F
$$
MNZ012-019>021-037-110800-
   Northeast Minnesota

CITY           SKY/WX    TMP DP  RH WIND       PRES   REMARKS
DULUTH         CLOUDY     4   1  88 E3        30.14F
ELY            CLOUDY   -15 -18  84 CALM      30.18F
HIBBING        CLOUDY   -11 -15  82 CALM      30.15F
EVELETH        CLOUDY    -3  -8  79 NE5       30.16F WCI -14
DULUTH HARBOR  CLOUDY    12   7  79 CALM      30.22F
TWO HARBORS    FLURRIES   9   3  78 CALM      30.17F
SILVER BAY     LGT SNOW   5   1  85 CALM      30.18F
GRAND MARAIS     N/A      8  -1  66 N8        30.24F WCI  -4
G MARAIS ARPRT CLEAR     -8 -11  84 N5        30.13F WCI -19
$$
MNZ029>031-032-039>041-046>048-054>057-064-110800-
   West Central Minnesota

CITY           SKY/WX    TMP DP  RH WIND       PRES   REMARKS
FERGUS FALLS   FLURRIES   9   3  78 MISG      30.09F
WHEATON        LGT SNOW  12  10  92 E13       30.04F WCI  -3
MORRIS         LGT SNOW  10   9  92 E20       30.00F WCI  -8
ALEXANDRIA     FLURRIES  10   5  80 E14       30.03F WCI  -6
ELBOW LAKE     FLURRIES  10   6  84 E12G20    30.02F WCI  -5
WADENA         FLURRIES   7   1  78 E8        30.07S WCI  -6
GLENWOOD       LGT SNOW  10   7  85 E15       30.02F WCI  -6
APPLETON       LGT SNOW  14  10  85 E15       30.00F WCI  -1
BENSON         LGT SNOW  12   9  85 SE12      30.00F WCI  -2
ORTONVILLE     LGT SNOW  12   9  85 E10       29.99F WCI  -1
MADISON        LGT SNOW  16  12  86 E12       29.99F VSB 1   WCI   3
WILLMAR        LGT SNOW  14  10  85 E14       30.01F WCI  -1
$$
MNZ033>034-036-042>043-049>051-058-059-110800-
   Central Minnesota

CITY           SKY/WX    TMP DP  RH WIND       PRES   REMARKS
ST CLOUD       LGT SNOW  12   8  84 E8        30.08F FOG     WCI   0
PAYNESVILLE    LGT SNOW  11  10  95 E10       30.04F WCI  -2
AITKIN         MIX PCPN   9   0  66 E6        30.12F WCI  -1
PINE RIVER     FLURRIES   3   0  85 E7        30.14F WCI  -9
BRAINERD       CLOUDY     8   4  83 NE7       30.10F WCI  -3
LONG PRAIRIE   FLURRIES  10   5  79 NE12      30.05F WCI  -4
LITTLE FALLS   FLURRIES  12   7  79 E7        30.10F WCI   2
LITCHFIELD     LGT SNOW  12  10  92 E10       30.04F WCI  -1
BUFFALO        LGT SNOW  13   9  85 NE10      30.08F WCI   0
MAPLE LAKE     LGT SNOW  13  11  90 E12       30.08F WCI   0
HUTCHINSON     LGT SNOW  14  11  89 E12       30.04F WCI   0
$$
MNZ037-044-045-052-053-110800-
   East Central Minnesota

CITY           SKY/WX    TMP DP  RH WIND       PRES   REMARKS
PRINCETON      LGT SNOW  12   9  85 NE7       30.10F WCI   2
MORA           FLURRIES  12   9  85 E6        30.15F WCI   3
CAMBRIDGE      LGT SNOW  14   7  73 NE5       30.11F WCI   6
RUSH CITY      CLOUDY    12   9  85 E7        30.14F WCI   2
MOOSE LAKE     CLOUDY     9   3  78 CALM      30.14F
HINCKLEY       FLURRIES  12   9  85 E8        30.16S WCI   1
CLOQUET        CLOUDY     7   0  72 E5        30.14F WCI  -2
MCGREGOR       CLOUDY     9   3  78 NE3       30.15F
$$
MNZ071>073-080-081-089-090-097-098-110800-
   Southwest Minnesota

CITY           SKY/WX    TMP DP  RH WIND       PRES   REMARKS
MONTEVIDEO     LGT SNOW  12  10  92 SE16      30.00F WCI  -4
GRANITE FALLS  LGT SNOW  15  12  89 E14G22    30.00F WCI   0
CANBY          LGT SNOW  13  11  90 CALM      29.97F
MARSHALL       LGT SNOW  13  10  88 E14G21    29.95F FOG     WCI  -2
REDWOOD FALLS  LGT SNOW  14   9  80 E13G20    29.99F VSB 3/4 WCI   0
OLIVIA         LGT SNOW  16  12  86 E16       29.99F WCI   0
PIPESTONE      LGT SNOW  18  16  93 SE13G18   29.85F WCI   4
WINDOM         LGT SNOW  18  16  93 MISG      29.93F
WORTHINGTON    FLURRIES  19  16  88 E15       29.89F WCI   5
JACKSON        LGT SNOW  19  18  93 E16       29.93F WCI   5
TRACY          LGT SNOW  16  14  92 E10       29.94F WCI   3
SLAYTON        LGT SNOW  16  15  94 SE17      29.89F WCI   0
$$
MNZ065>067-074>077-082>085-091>093-110800-
   South Central Minnesota

CITY           SKY/WX    TMP DP  RH WIND       PRES   REMARKS
MANKATO        LGT SNOW  16  13  88 E13       30.01F FOG     WCI   2
NEW ULM        LGT SNOW  14  10  85 E12       30.00F VSB 3/4 WCI   0
ST JAMES       LGT SNOW  18  18 100 E13       29.98F VSB 1   WCI   4
FAIRMONT       LGT SNOW  19  17  92 E15       29.96F FOG     WCI   5
GLENCOE        LGT SNOW  15  13  93 E12       30.04F WCI   1
FARIBAULT      LGT SNOW  16  12  86 E7        30.06F VSB 1   WCI   6
OWATONNA       LGT SNOW  16  12  86 E14       30.03F VSB 1   WCI   1
WASECA         LGT SNOW  18  14  86 E13       30.03F WCI   4
ALBERT LEA     LGT SNOW  23  21  93 SE13      30.00F WCI  11
$$
MNZ078>079-086>088-094>096-110800-
   Southeast Minnesota

CITY           SKY/WX    TMP DP  RH WIND       PRES   REMARKS
ROCHESTER      LGT SNOW  15  13  91 E14       30.05F VSB 1   WCI   0
RED WING       LGT SNOW  16  12  86 E7        30.12F WCI   6
STANTON        LGT SNOW  17  13  85 E9        30.07F WCI   5
DODGE CENTER   LGT SNOW  16  12  86 E13       30.03F WCI   2
WINONA         LGT SNOW  18  14  86 SE6       30.15F WCI   9
AUSTIN         LGT SNOW  19  16  86 SE15      30.02F VSB 1   WCI   5
PRESTON        LGT SNOW  16  14  90 E6        30.07F WCI   8
$$
ABBREVIATIONS USED IN REMARKS
   TC - TEMPERATURES IN CELSIUS
  WCI - WIND CHILL INDEX
   HX - HEAT INDEX
  VSB - VISIBILITY
$$




USA.gov is the U.S. government's official web portal to all federal, state and local government web resources and services.